VK3BYD-3 Weather Reports


time (UTC)temp
C
wind
direction
speed
KPH
gust
KPH
rain 1hr
cm
rain 24hr
cm
rain mn
cm
humidity
%
barometer
mb
20260505163337 5 347 0.0 0.0 0.00 0.00 0.00 97 1021.3
20260505161836 5 347 0.0 0.0 0.00 0.00 0.00 97 1021.5
20260505160336 5 347 0.0 0.0 0.00 0.00 0.00 97 1021.6
20260505153336 6 347 0.0 0.0 0.00 0.00 0.00 97 1021.7
20260505151833 6 347 0.0 0.0 0.00 0.00 0.00 97 1021.8
20260505150333 6 347 0.0 0.0 0.00 0.00 0.00 97 1021.9
20260505140326 6 347 0.0 0.0 0.00 0.00 0.00 95 1022.0
20260505124814 8 347 0.0 0.0 0.00 0.00 0.00 94 1022.1
20260505123314 8 347 0.0 0.0 0.00 0.00 0.00 95 1022.2
20260505121814 8 347 0.0 0.0 0.00 0.00 0.00 94 1022.4
20260505120315 9 347 0.0 0.0 0.00 0.00 0.00 94 1022.4
20260505114812 9 347 0.0 0.0 0.00 0.00 0.00 94 1022.3
20260505113310 10 347 0.0 0.0 0.00 0.00 0.00 93 1022.4
20260505111807 10 347 0.0 0.0 0.00 0.00 0.00 92 1022.4
20260505110304 10 347 0.0 0.0 0.00 0.00 0.00 92 1022.4
20260505101802 11 347 0.0 0.0 0.00 0.00 0.00 92 1022.4
20260505100302 11 347 0.0 0.0 0.00 0.00 0.00 91 1022.4
20260505094800 11 347 0.0 0.0 0.00 0.00 0.00 91 1022.4
20260505093258 11 347 0.0 0.0 0.00 0.00 0.00 90 1022.3
20260505091758 11 286 0.0 0.0 0.00 0.00 0.00 89 1022.2
20260505090258 11 286 0.0 0.0 0.00 0.00 0.00 88 1022.2
20260505084756 12 286 0.0 0.0 0.00 0.00 0.00 88 1022.0
20260505083256 12 286 0.0 0.0 0.00 0.00 0.00 87 1021.9
20260505081754 12 286 0.0 0.0 0.00 0.00 0.00 85 1021.7
20260505080254 12 278 0.0 0.0 0.00 0.00 0.00 82 1021.4
20260505074754 13 278 0.0 0.0 0.00 0.00 0.00 81 1021.2
20260505073254 14 278 0.0 1.6 0.00 0.00 0.00 77 1021.2
20260505071754 15 278 0.0 1.6 0.00 0.00 0.00 75 1020.9
20260505070256 15 278 0.0 1.6 0.00 0.00 0.00 73 1020.9
20260505064749 16 268 0.0 1.6 0.00 0.00 0.00 70 1020.7
20260505063246 17 285 0.0 4.8 0.00 0.00 0.00 67 1020.6
20260505061748 18 49 0.0 4.8 0.00 0.00 0.00 68 1020.5
20260505060248 18 323 0.0 3.2 0.00 0.00 0.00 66 1020.6
20260505054747 18 319 0.0 8.0 0.00 0.00 0.00 68 1020.5
20260505053247 18 38 1.6 8.0 0.00 0.00 0.00 69 1020.4
20260505051747 18 326 1.6 4.8 0.00 0.00 0.00 69 1020.3
20260505050247 17 303 1.6 8.0 0.00 0.00 0.00 72 1020.1
20260505041749 17 314 0.0 3.2 0.00 0.00 0.00 73 1019.9
20260505040251 16 94 0.0 4.8 0.00 0.00 0.00 72 1019.9
20260505034747 17 248 0.0 4.8 0.00 0.00 0.00 72 1019.8
20260505033245 17 119 0.0 4.8 0.00 0.00 0.00 74 1019.7
20260505031744 16 39 0.0 4.8 0.00 0.00 0.00 74 1019.8
20260505030242 16 283 1.6 6.4 0.00 0.00 0.00 75 1019.8
20260505024741 17 264 0.0 3.2 0.00 0.00 0.00 73 1019.8
20260505023242 16 262 0.0 6.4 0.00 0.00 0.00 74 1019.8
20260505021741 16 286 1.6 6.4 0.00 0.00 0.00 73 1019.8
20260505020241 16 291 1.6 8.0 0.00 0.00 0.00 74 1019.9
20260505014736 16 283 1.6 4.8 0.00 0.00 0.00 77 1019.9
20260505013235 15 37 1.6 4.8 0.00 0.00 0.00 77 1020.1
20260505011736 15 288 1.6 3.2 0.00 0.00 0.00 81 1020.2
20260505010235 14 152 0.0 3.2 0.00 0.00 0.00 82 1020.3
20260505004733 14 54 0.0 1.6 0.00 0.00 0.00 82 1020.2
20260505003230 14 27 0.0 1.6 0.00 0.00 0.00 84 1020.2
20260505001729 13 351 0.0 4.8 0.00 0.00 0.00 87 1020.2
20260505000229 13 48 0.0 3.2 0.00 0.00 0.00 87 1020.1
20260504234727 12 35 0.0 1.6 0.00 0.00 0.00 90 1019.9
20260504233225 12 15 0.0 1.6 0.00 0.00 0.00 90 1020.0
20260504231717 12 34 0.0 1.6 0.00 0.00 0.00 93 1020.0
20260504230216 11 269 0.0 4.8 0.00 0.00 0.00 94 1019.9
20260504224715 11 103 0.0 4.8 0.00 0.00 0.00 94 1019.8
20260504223302 11 278 0.0 1.6 0.00 0.00 0.00 96 1019.5
20260504221715 11 254 0.0 1.6 0.00 0.00 0.00 96 1019.4
20260504220211 11 275 0.0 1.6 0.00 0.00 0.00 97 1019.2
20260504214711 10 274 0.0 0.0 0.00 0.00 0.00 97 1018.9
20260504213211 10 274 0.0 0.0 0.00 0.00 0.00 97 1018.7
20260504211711 9 274 0.0 0.0 0.00 0.00 0.00 96 1018.6
20260504210212 8 274 0.0 0.0 0.00 0.00 0.00 96 1018.3
20260504204711 8 274 0.0 0.0 0.00 0.00 0.00 95 1018.2
20260504203211 8 274 0.0 0.0 0.00 0.03 0.00 94 1018.1
20260504201711 8 274 0.0 0.0 0.00 0.03 0.00 94 1017.8
20260504200211 9 274 0.0 0.0 0.00 0.03 0.00 94 1017.6
20260504194710 10 274 0.0 0.0 0.00 0.03 0.00 93 1017.5
20260504193211 10 274 0.0 3.2 0.00 0.03 0.00 93 1017.6
20260504191711 11 288 0.0 1.6 0.00 0.03 0.00 93 1017.5
20260504190209 11 287 0.0 1.6 0.00 0.03 0.00 93 1017.5
20260504184707 11 266 0.0 1.6 0.00 0.03 0.00 93 1017.5
20260504183207 11 266 0.0 1.6 0.00 0.03 0.00 93 1017.2
20260504181707 11 266 0.0 4.8 0.00 0.03 0.00 93 1017.1
20260504180207 11 307 0.0 1.6 0.00 0.03 0.00 94 1016.9
20260504174705 11 307 0.0 3.2 0.00 0.03 0.00 94 1016.9
20260504173205 11 24 0.0 4.8 0.00 0.03 0.00 95 1016.7
20260504171704 10 279 0.0 3.2 0.00 0.03 0.00 95 1016.5
20260504170201 10 274 0.0 1.6 0.00 0.03 0.00 95 1016.5